This is the latest recevied weather packets stored in our database for station/object WE8L. If no packets are shown the sender has not sent any weather packets the latest 10 day(s).
| Time | Temp. | Humidity | Pressure | Rain* | Wind** | Luminosity | Snow |
|---|---|---|---|---|---|---|---|
| 1777582311 | 14.44° C | 41% | 1018 hPa | 0 mm | - | 59 W/m² | - |
| 1777582009 | 15° C | 41% | 1018 hPa | 0 mm | - | 53 W/m² | - |
| 1777581704 | 15° C | 41% | 1018.3 hPa | 0 mm | - | 99 W/m² | - |
| 1777581403 | 15° C | 40% | 1018.3 hPa | 0 mm | - | 234 W/m² | - |
| 1777581098 | 15° C | 43% | 1018.3 hPa | 0 mm | - | 65 W/m² | - |
| 1777580797 | 14.44° C | 40% | 1018.3 hPa | 0 mm | - | 55 W/m² | - |
| 1777580494 | 15° C | 43% | 1018.2 hPa | 0 mm | - | 61 W/m² | - |
| 1777580189 | 15° C | 43% | 1018 hPa | 0 mm | - | 56 W/m² | - |
| 1777579886 | 15° C | 41% | 1018.2 hPa | 0 mm | - | 66 W/m² | - |
| 1777579586 | 15° C | 41% | 1018.2 hPa | 0 mm | - | 64 W/m² | - |
| 1777579280 | 15° C | 43% | 1018.3 hPa | 0 mm | - | 62 W/m² | - |
| 1777578976 | 15° C | 42% | 1018.3 hPa | 0 mm | - | 54 W/m² | - |
| 1777578671 | 15° C | 42% | 1018.4 hPa | 0 mm | - | 47 W/m² | - |
| 1777578370 | 15° C | 42% | 1018.2 hPa | 0 mm | - | 108 W/m² | - |
| 1777578066 | 15° C | 40% | 1018.3 hPa | 0 mm | - | 466 W/m² | - |
| 1777577761 | 15° C | 41% | 1018.4 hPa | 0 mm | - | 68 W/m² | - |
| 1777577458 | 15° C | 40% | 1018.3 hPa | 0 mm | - | 119 W/m² | - |
| 1777577155 | 15° C | 40% | 1018.6 hPa | 0 mm | - | 357 W/m² | - |
| 1777576852 | 15° C | 40% | 1018.6 hPa | 0 mm | - | 230 W/m² | - |
| 1777576550 | 15° C | 41% | 1018.7 hPa | 0 mm | - | 246 W/m² | - |
| 1777576247 | 15° C | 42% | 1018.7 hPa | 0 mm | - | 309 W/m² | - |
| 1777575943 | 15° C | 43% | 1018.7 hPa | 0 mm | - | 220 W/m² | - |
| 1777575639 | 15.56° C | 41% | 1018.8 hPa | 0 mm | - | 612 W/m² | - |
| 1777575336 | 15° C | 39% | 1018.6 hPa | 0 mm | - | 709 W/m² | - |
| 1777575032 | 13.89° C | 43% | 1018.7 hPa | 0 mm | - | 677 W/m² | - |
* Rain latest hour (hover to see other rain measurements)
** Current wind speed in m/s (hover to see current wind gust speed)